TURKSAT 5A

导读

TURKSAT 5A是土耳其TURKSAT系列通信卫星5批次首星,由空客防务与航天公司基于欧洲星3000EOR平台研制,于2021年1月8日发射升空,定点于东经31°地球静止轨道。卫星发射质量约3500千克,设计寿命15年,配置42路波段转发器,可为欧洲、中东、非洲及亚洲部分区域提供电视广播传输与固定通信服务,目前仍在轨稳定运行。

基本信息
目录编号:
47306
目录名称:
TURKSAT 5A
国际标识:
2021-001A
轨道中心:
EARTH
卫星名称:
TURKSAT 5A
卫星全名:
--
卫星状态:
在轨 (已飞行1990 天)
发射日期:
2021-01-08 UTC
国别 :
土耳其 (TR)
星等 :
--
轨道信息
数据来源 国际轨道数据 AOE轨道数据
星历时间 2026-06-20T14:07:57+0800
1天前
查看轨道信息
2026-06-21T12:00:00+0800
10小时前
查看轨道信息
半长轴 42164.784km 42164.672km
偏心率 0.0000186 0.0000051
轨道倾角 0.017° 0.022°
近地点辐角 297.981° 27.746°
升交点赤经 61.085° 71.280°
平近点角 32.320° 261.272°
近地点 35785.862km 35786.319km
远地点 35787.432km 35786.751km
周期 1436.100分钟 1436.094分钟
每日圈数 1.002716 1.00272
详细信息
使用方式:
暂无
2D轨道图
3D轨道图
轨道高度分析图
轨道倾角分析图
轨道综合分析图
查看轨道综合分析图